#
# The Tor Project
#
# URL: https://metrics.torproject.org/userstats-bridge-transport.csv?start=2021-01-01&end=2021-07-10&transport=snowflake
#
date,transport,users,frac
2021-01-01,snowflake,65,82
2021-01-02,snowflake,83,79
2021-01-03,snowflake,76,86
2021-01-04,snowflake,78,83
2021-01-05,snowflake,75,83
2021-01-06,snowflake,91,68
2021-01-07,snowflake,74,85
2021-01-08,snowflake,64,86
2021-01-09,snowflake,89,68
2021-01-10,snowflake,77,85
2021-01-11,snowflake,87,83
2021-01-12,snowflake,85,84
2021-01-13,snowflake,78,81
2021-01-14,snowflake,74,86
2021-01-15,snowflake,59,86
2021-01-16,snowflake,34,68
2021-01-17,snowflake,4,82
2021-01-18,snowflake,5,85
2021-01-19,snowflake,4,86
2021-01-20,snowflake,20,86
2021-01-21,snowflake,53,86
2021-01-22,snowflake,59,85
2021-01-23,snowflake,56,86
2021-01-24,snowflake,49,86
2021-01-25,snowflake,60,86
2021-01-26,snowflake,58,86
2021-01-27,snowflake,74,82
2021-01-28,snowflake,94,66
2021-01-29,snowflake,67,85
2021-01-30,snowflake,62,86
2021-01-31,snowflake,80,86
2021-02-01,snowflake,82,83
2021-02-02,snowflake,79,83
2021-02-03,snowflake,106,79
2021-02-04,snowflake,128,80
2021-02-05,snowflake,109,83
2021-02-06,snowflake,105,85
2021-02-07,snowflake,90,85
2021-02-08,snowflake,105,84
2021-02-09,snowflake,164,81
2021-02-10,snowflake,118,84
2021-02-11,snowflake,120,75
2021-02-12,snowflake,166,81
2021-02-13,snowflake,210,86
2021-02-14,snowflake,202,87
2021-02-15,snowflake,213,82
2021-02-16,snowflake,212,85
2021-02-17,snowflake,206,86
2021-02-18,snowflake,214,83
2021-02-19,snowflake,209,81
2021-02-20,snowflake,262,57
2021-02-21,snowflake,232,68
2021-02-22,snowflake,234,68
2021-02-23,snowflake,222,72
2021-02-24,snowflake,221,74
2021-02-25,snowflake,230,77
2021-02-26,snowflake,220,78
2021-02-27,snowflake,244,67
2021-02-28,snowflake,189,84
2021-03-01,snowflake,192,81
2021-03-02,snowflake,203,83
2021-03-03,snowflake,211,82
2021-03-04,snowflake,223,78
2021-03-05,snowflake,232,77
2021-03-06,snowflake,243,77
2021-03-07,snowflake,206,72
2021-03-08,snowflake,106,73
2021-03-09,snowflake,246,76
2021-03-10,snowflake,249,77
2021-03-11,snowflake,266,77
2021-03-12,snowflake,267,78
2021-03-13,snowflake,260,78
2021-03-14,snowflake,248,78
2021-03-15,snowflake,256,78
2021-03-16,snowflake,199,72
2021-03-17,snowflake,398,55
2021-03-18,snowflake,295,76
2021-03-19,snowflake,266,83
2021-03-20,snowflake,303,70
2021-03-21,snowflake,286,75
2021-03-22,snowflake,264,83
2021-03-23,snowflake,260,81
2021-03-24,snowflake,278,84
2021-03-25,snowflake,257,83
2021-03-26,snowflake,274,83
2021-03-27,snowflake,325,69
2021-03-28,snowflake,282,73
2021-03-29,snowflake,329,69
2021-03-30,snowflake,230,83
2021-03-31,snowflake,258,80
2021-04-01,snowflake,257,78
2021-04-02,snowflake,262,76
2021-04-03,snowflake,267,77
2021-04-04,snowflake,253,76
2021-04-05,snowflake,48,80
2021-04-06,snowflake,277,81
2021-04-07,snowflake,261,80
2021-04-08,snowflake,260,76
2021-04-09,snowflake,303,74
2021-04-10,snowflake,250,80
2021-04-11,snowflake,256,77
2021-04-12,snowflake,255,75
2021-04-13,snowflake,233,79
2021-04-14,snowflake,273,69
2021-04-15,snowflake,255,80
2021-04-16,snowflake,265,81
2021-04-17,snowflake,305,70
2021-04-18,snowflake,269,81
2021-04-19,snowflake,270,80
2021-04-20,snowflake,298,76
2021-04-21,snowflake,276,78
2021-04-22,snowflake,290,76
2021-04-23,snowflake,255,77
2021-04-24,snowflake,244,77
2021-04-25,snowflake,242,76
2021-04-26,snowflake,248,78
2021-04-27,snowflake,242,78
2021-04-28,snowflake,248,76
2021-04-29,snowflake,265,76
2021-04-30,snowflake,272,75
2021-05-01,snowflake,277,72
2021-05-02,snowflake,204,79
2021-05-03,snowflake,106,80
2021-05-04,snowflake,233,79
2021-05-05,snowflake,289,78
2021-05-06,snowflake,319,79
2021-05-07,snowflake,273,76
2021-05-08,snowflake,239,78
2021-05-09,snowflake,225,76
2021-05-10,snowflake,235,76
2021-05-11,snowflake,226,80
2021-05-12,snowflake,124,80
2021-06-11,snowflake,25,78
2021-06-12,snowflake,183,81
2021-06-15,snowflake,50,80
2021-06-16,snowflake,226,80
2021-06-17,snowflake,260,77
2021-06-18,snowflake,97,70
2021-06-19,snowflake,386,69
2021-06-20,snowflake,167,69
2021-06-21,snowflake,104,71
2021-06-22,snowflake,401,71
2021-06-23,snowflake,300,70
2021-06-24,snowflake,132,60
2021-06-25,snowflake,403,73
2021-06-26,snowflake,362,77
2021-06-27,snowflake,357,77
2021-06-28,snowflake,363,76
2021-06-29,snowflake,376,74
2021-06-30,snowflake,366,77
2021-07-01,snowflake,361,73
2021-07-02,snowflake,281,71
2021-07-03,snowflake,256,77
2021-07-04,snowflake,461,73
2021-07-05,snowflake,635,77
2021-07-06,snowflake,722,75
2021-07-07,snowflake,976,69
2021-07-08,snowflake,1171,64
2021-07-09,snowflake,966,72
2021-07-10,snowflake,717,79
